When you browse on this site, cookies collect data to enhance your experience and personalize the content and advertising you see.
Visit our Privacy Policy to learn more. By continuing to use the site, you agree to this use of cookies and data.
  • Em Portugal
  • Lista de países
  • Para 7 dias
  • Temperatura da água
  • Mapas de satélite
  • Mapa do tempo
  • Widgets de tempo
  • user-avatar
    Iniciar Sessão

    Previsão horária em Rozana

    Hoje, 25 Março, Segunda-feira

    Tempo Temperatura Precipitação Vento Pressão Humidade
    00:00 +6°C° 0 mm 2 m/s 727 mmHg 77%
    01:00 +5°C° 0 mm 2 m/s 727 mmHg 82%
    02:00 +5°C° 0 mm 2 m/s 726 mmHg 83%
    03:00 +4°C° 0 mm 2 m/s 726 mmHg 83%
    04:00 +3°C° 0 mm 2 m/s 725 mmHg 84%
    05:00 +3°C° 0 mm 2 m/s 725 mmHg 84%
    06:00 +3°C° 0 mm 2 m/s 725 mmHg 83%
    07:00 +4°C° 0 mm 2 m/s 724 mmHg 80%
    08:00 +4°C° 0.1 mm 3 m/s 724 mmHg 72%
    09:00 +5°C° 0.1 mm 5 m/s 724 mmHg 63%
    10:00 +5°C° 0.1 mm 6 m/s 723 mmHg 54%
    11:00 +5°C° 0.4 mm 6 m/s 723 mmHg 55%
    12:00 +5°C° 0.4 mm 7 m/s 723 mmHg 57%
    13:00 +5°C° 0.4 mm 7 m/s 723 mmHg 58%
    14:00 +4°C° 0.3 mm 7 m/s 723 mmHg 59%
    15:00 +4°C° 0.3 mm 7 m/s 723 mmHg 60%
    16:00 +4°C° 0.3 mm 7 m/s 724 mmHg 61%
    17:00 +3°C° 0 mm 5 m/s 724 mmHg 66%
    18:00 +3°C° 0 mm 4 m/s 724 mmHg 71%
    19:00 +1°C° 0 mm 3 m/s 725 mmHg 76%
    20:00 +1°C° 0 mm 3 m/s 725 mmHg 79%
    21:00 +1°C° 0 mm 3 m/s 726 mmHg 82%
    22:00 0°C° 0 mm 3 m/s 727 mmHg 84%
    23:00 0°C° 0 mm 3 m/s 727 mmHg 86%

    Amanhã, 26 Março, Terça-feira

    Tempo Temperatura Precipitação Vento Pressão Humidade
    00:00 0°C° 0 mm 3 m/s 728 mmHg 88%
    01:00 0°C° 0 mm 3 m/s 728 mmHg 90%
    02:00 0°C° 0 mm 3 m/s 729 mmHg 90%
    03:00 0°C° 0 mm 3 m/s 729 mmHg 90%
    04:00 0°C° 0 mm 3 m/s 729 mmHg 90%
    05:00 0°C° 0 mm 3 m/s 730 mmHg 88%
    06:00 0°C° 0 mm 3 m/s 730 mmHg 86%
    07:00 0°C° 0 mm 3 m/s 731 mmHg 85%
    08:00 +2°C° 0 mm 3 m/s 731 mmHg 76%
    09:00 +3°C° 0 mm 4 m/s 731 mmHg 67%
    10:00 +5°C° 0 mm 5 m/s 731 mmHg 58%
    11:00 +4°C° 0 mm 6 m/s 731 mmHg 57%
    12:00 +5°C° 0 mm 7 m/s 731 mmHg 55%
    13:00 +6°C° 0 mm 8 m/s 730 mmHg 53%
    14:00 +5°C° 0 mm 8 m/s 730 mmHg 56%
    15:00 +4°C° 0 mm 8 m/s 730 mmHg 59%
    16:00 +2°C° 0 mm 8 m/s 730 mmHg 62%
    17:00 +2°C° 0 mm 7 m/s 730 mmHg 67%
    18:00 +1°C° 0 mm 6 m/s 731 mmHg 71%
    19:00 +1°C° 0 mm 5 m/s 731 mmHg 75%
    20:00 0°C° 0 mm 4 m/s 731 mmHg 77%
    21:00 0°C° 0 mm 4 m/s 732 mmHg 79%
    22:00 0°C° 0 mm 4 m/s 732 mmHg 82%
    23:00 0°C° 0 mm 3 m/s 732 mmHg 83%

    Depois de amanhã, 27 Março, Quarta-feira

    Tempo Temperatura Precipitação Vento Pressão Humidade
    00:00 0°C° 0 mm 3 m/s 733 mmHg 85%
    01:00 +1°C° 0 mm 2 m/s 733 mmHg 86%
    02:00 -1°C° 0 mm 2 m/s 733 mmHg 87%
    03:00 -1°C° 0 mm 2 m/s 733 mmHg 88%
    04:00 -1°C° 0 mm 2 m/s 733 mmHg 89%
    05:00 +1°C° 0 mm 2 m/s 733 mmHg 88%
    06:00 +1°C° 0 mm 2 m/s 733 mmHg 86%
    07:00 +1°C° 0 mm 2 m/s 734 mmHg 84%
    08:00 +3°C° 0 mm 2 m/s 734 mmHg 77%
    09:00 +4°C° 0 mm 3 m/s 734 mmHg 70%
    10:00 +5°C° 0 mm 3 m/s 735 mmHg 63%
    11:00 +5°C° 0.1 mm 3 m/s 735 mmHg 65%
    12:00 +7°C° 0.1 mm 3 m/s 735 mmHg 68%
    13:00 +7°C° 0.1 mm 3 m/s 734 mmHg 70%
    14:00 +7°C° 0.1 mm 3 m/s 734 mmHg 69%
    15:00 +6°C° 0.1 mm 4 m/s 734 mmHg 68%
    16:00 +6°C° 0.1 mm 4 m/s 734 mmHg 67%
    17:00 +7°C° 0 mm 3 m/s 734 mmHg 72%
    18:00 +6°C° 0 mm 2 m/s 734 mmHg 77%
    19:00 +5°C° 0 mm 2 m/s 735 mmHg 82%
    20:00 +6°C° 0 mm 1 m/s 735 mmHg 84%
    21:00 +6°C° 0 mm 1 m/s 735 mmHg 86%
    22:00 +6°C° 0 mm 1 m/s 735 mmHg 88%
    23:00 +5°C° 0 mm 1 m/s 735 mmHg 89%

    28 Março, Quinta-feira

    Tempo Temperatura Precipitação Vento Pressão Humidade
    00:00 +5°C° 0 mm 1 m/s 735 mmHg 90%
    01:00 +5°C° 0 mm 1 m/s 735 mmHg 90%
    02:00 +5°C° 0 mm 1 m/s 735 mmHg 90%
    03:00 +4°C° 0 mm 2 m/s 735 mmHg 90%
    04:00 +4°C° 0 mm 2 m/s 735 mmHg 89%
    05:00 +5°C° 0 mm 2 m/s 735 mmHg 89%
    06:00 +5°C° 0 mm 2 m/s 736 mmHg 89%
    07:00 +5°C° 0 mm 2 m/s 736 mmHg 88%
    08:00 +6°C° 0.1 mm 2 m/s 736 mmHg 85%
    09:00 +7°C° 0.1 mm 2 m/s 737 mmHg 81%
    10:00 +8°C° 0.1 mm 3 m/s 737 mmHg 77%
    11:00 +8°C° 0.1 mm 3 m/s 737 mmHg 74%
    12:00 +8°C° 0.1 mm 3 m/s 737 mmHg 70%
    13:00 +8°C° 0.1 mm 4 m/s 737 mmHg 67%
    14:00 +8°C° 0.1 mm 4 m/s 737 mmHg 67%
    15:00 +8°C° 0.1 mm 4 m/s 737 mmHg 67%
    16:00 +8°C° 0.1 mm 4 m/s 737 mmHg 67%
    17:00 +7°C° 0 mm 3 m/s 737 mmHg 73%
    18:00 +5°C° 0 mm 3 m/s 737 mmHg 79%
    19:00 +5°C° 0 mm 2 m/s 738 mmHg 85%
    20:00 +4°C° 0 mm 2 m/s 738 mmHg 86%
    21:00 +4°C° 0 mm 2 m/s 738 mmHg 88%
    22:00 +4°C° 0 mm 1 m/s 739 mmHg 89%
    23:00 +4°C° 0 mm 1 m/s 739 mmHg 90%

    29 Março, Sexta-feira

    Tempo Temperatura Precipitação Vento Pressão Humidade
    00:00 +4°C° 0 mm 1 m/s 739 mmHg 90%
    01:00 +3°C° 0 mm 1 m/s 739 mmHg 90%
    02:00 +3°C° 0 mm 1 m/s 739 mmHg 91%
    03:00 +3°C° 0 mm 1 m/s 739 mmHg 91%
    04:00 +3°C° 0 mm 1 m/s 739 mmHg 91%
    05:00 +3°C° 0 mm 1 m/s 739 mmHg 90%
    06:00 +4°C° 0 mm 1 m/s 740 mmHg 88%
    07:00 +5°C° 0 mm 1 m/s 740 mmHg 86%
    08:00 +7°C° 0 mm 1 m/s 740 mmHg 78%
    09:00 +8°C° 0 mm 1 m/s 740 mmHg 71%
    10:00 +10°C° 0 mm 1 m/s 740 mmHg 63%
    11:00 +11°C° 0 mm 1 m/s 740 mmHg 59%
    12:00 +12°C° 0 mm 1 m/s 740 mmHg 54%
    13:00 +13°C° 0 mm 1 m/s 739 mmHg 50%
    14:00 +13°C° 0 mm 1 m/s 739 mmHg 49%
    15:00 +13°C° 0 mm 1 m/s 739 mmHg 47%
    16:00 +13°C° 0 mm 1 m/s 738 mmHg 46%
    17:00 +12°C° 0 mm 1 m/s 738 mmHg 53%
    18:00 +10°C° 0 mm 1 m/s 738 mmHg 59%
    19:00 +7°C° 0 mm 0 m/s 737 mmHg 65%
    20:00 +7°C° 0 mm 0 m/s 737 mmHg 66%
    21:00 +7°C° 0 mm 1 m/s 737 mmHg 67%
    22:00 +7°C° 0 mm 1 m/s 737 mmHg 69%
    23:00 +7°C° 0 mm 1 m/s 737 mmHg 70%

    30 Março, Sábado

    Tempo Temperatura Precipitação Vento Pressão Humidade
    00:00 +6°C° 0 mm 1 m/s 737 mmHg 71%
    01:00 +6°C° 0 mm 1 m/s 737 mmHg 72%
    02:00 +6°C° 0 mm 1 m/s 737 mmHg 73%
    03:00 +6°C° 0 mm 1 m/s 737 mmHg 73%
    04:00 +5°C° 0 mm 1 m/s 736 mmHg 74%
    05:00 +6°C° 0 mm 1 m/s 736 mmHg 73%
    06:00 +7°C° 0 mm 1 m/s 736 mmHg 73%
    07:00 +7°C° 0 mm 1 m/s 736 mmHg 72%
    08:00 +9°C° 0 mm 1 m/s 736 mmHg 65%
    09:00 +12°C° 0 mm 1 m/s 736 mmHg 58%
    10:00 +14°C° 0 mm 1 m/s 736 mmHg 51%
    11:00 +15°C° 0 mm 1 m/s 735 mmHg 47%
    12:00 +16°C° 0 mm 1 m/s 735 mmHg 44%
    13:00 +17°C° 0 mm 2 m/s 734 mmHg 40%
    14:00 +17°C° 0 mm 2 m/s 733 mmHg 41%
    15:00 +17°C° 0 mm 2 m/s 733 mmHg 41%
    16:00 +17°C° 0 mm 3 m/s 732 mmHg 42%
    17:00 +14°C° 0 mm 3 m/s 731 mmHg 48%
    18:00 +12°C° 0 mm 3 m/s 731 mmHg 55%
    19:00 +10°C° 0 mm 2 m/s 730 mmHg 61%
    20:00 +9°C° 0 mm 2 m/s 730 mmHg 62%
    21:00 +9°C° 0 mm 2 m/s 730 mmHg 63%
    22:00 +8°C° 0 mm 2 m/s 730 mmHg 65%
    23:00 +8°C° 0 mm 2 m/s 729 mmHg 66%
    Mostrar mais